Regional Weather Roundup
Issued by NWS

Home | Current Version | Previous Version | Text Only | Print | Product List | Glossary Off
Versions: 1 2 3 4 5 6 7 8 9 10 11 12 13 14 15 16 17 18 19 20 21 22 23 24 25 26 27 28 29 30 31 32 33 34 35 36 37 38 39 40 41 42 43 44 45 46 47 48 49 50

000
ASUS43 KLOT 291410
RWRIL

ILLINOIS REGIONAL WEATHER ROUNDUP
NATIONAL WEATHER SERVICE CHICAGO/ROMEOVILLE IL
900 AM CDT TUE JUL 29 2014

NOTE: "FAIR" INDICATES FEW OR NO CLOUDS BELOW 12,000 FEET WITH NO
SIGNIFICANT WEATHER AND/OR OBSTRUCTIONS TO VISIBILITY.

* THESE STATIONS ARE NOT UNDER NWS QUALITY CONTROL. THEY ALSO MAY NOT
  REPORT WEATHER SUCH AS PRECIPITATION OR FOG.

ILZ001-002-007-009-015-016-024-291500-
NORTHWEST ILLINOIS

CITY           SKY/WX    TMP DP  RH WIND       PRES   REMARKS
MOLINE         SUNNY     67  57  70 W5        30.12S
STERLING*      SUNNY     66  57  72 NW5       30.11S
SAVANNA*       SUNNY     66  55  67 W3        30.11S
$$

ILZ003-004-008-010-011-017-018-291500-
NORTH CENTRAL ILLINOIS

CITY           SKY/WX    TMP DP  RH WIND       PRES   REMARKS
ROCKFORD       MOSUNNY   67  54  63 NW8       30.10S
FREEPORT*      SUNNY     65  58  78 W5        30.11S
ROCHELLE*      SUNNY     64  55  72 W6        30.09S
DE KALB*       CLOUDY    62  54  73 W9        30.09R
PERU*          MOSUNNY   64  56  76 W6        30.11S
$$

ILZ005-006-012>014-019>023-291500-
NORTHEAST ILLINOIS

CITY           SKY/WX    TMP DP  RH WIND       PRES   REMARKS
CHICAGO-OHARE  PTSUNNY   69  51  52 NW9       30.05R
CHICAGO-MIDWAY MOSUNNY   70  56  61 W9        30.05S
AURORA         CLOUDY    67  54  63 NW9       30.08S
LANSING*       MOSUNNY   65  55  70 W5        30.06S
JOLIET*        MOSUNNY   66  53  63 CALM      30.08S
WAUKEGAN       SUNNY     67  55  65 W8        30.04R
DUPAGE AIRPORT PTSUNNY   68  55  63 NW12      30.06S
KANKAKEE*      SUNNY     65  58  79 W5        30.08F
WHEELING       MOSUNNY   70  55  59 W9        30.05F
MORRIS*        SUNNY     67  56  68 W8        30.07F
ROMEOVILLE*    PTSUNNY   66  54  64 W7        30.07S
NORTHERLY ISL    N/A     67  54  63 W9          N/A
$$

LMZ740>746-291500-
SOUTHERN LAKE MICHIGAN

STATION/POSITION SKY/WX   TEMP    WIND        PRES    VSBY  WAVE
                          AIR SEA DIR/SP/G                  HT/PER
                          (F)     (DEG/KT/KT) (MB)    (MI)  (FT/S)
SOUTHERN BUOY              61 60  290/ 10/ 12 1016.6R         1
WAUKEGAN HARBOR            66     310/ 10/ 13   N/A
HARRISON CRIB              66     290/  8/ 10   N/A
BURNHAM HARBOR             68     250/  5/  9   N/A
CALUMET HARBOR             65     250/  4/  7 1016.3F
MICHIGAN CITY              63     200/  9/ 11   N/A
MICHIGAN CITY 6N           64 67  240/ 10/ 14   N/A           2/ 4
ST. JOSEPH                 64 66  220/ 14/ 16   N/A           2/ 3
$$

ILZ025>027-034>036-040-047-049-050-058-095>099-291500-
WEST-CENTRAL ILLINOIS

CITY           SKY/WX    TMP DP  RH WIND       PRES   REMARKS
QUINCY         SUNNY     66  60  81 NW6       30.14S
GALESBURG*     SUNNY     66  61  83 W5        30.13S
MACOMB*        SUNNY     65  60  82 NW5       30.16S
JACKSONVILLE*  SUNNY     67  62  83 W3        30.14S
PITTSFIELD*    SUNNY     67  60  76 W3        30.15S
$$

ILZ028>032-037-038-041>044-048-051>054-059>061-291500-
CENTRAL ILLINOIS

CITY           SKY/WX    TMP DP  RH WIND       PRES   REMARKS
PONTIAC        PTSUNNY   64  57  77 NW8       30.10S
DECATUR        SUNNY     68  55  63 NW9       30.12S
PEORIA         SUNNY     69  56  62 NW6       30.12S
LACON*         SUNNY     66  56  70 NW5       30.10F
LINCOLN*       SUNNY     67  57  71 NW5       30.10S
SPRINGFIELD    SUNNY     67  59  75 W3        30.13S
TAYLORVILLE    SUNNY     64  59  82 W6        30.13S
$$

ILZ033-039-045-046-055>057-062-063-291500-
EAST-CENTRAL ILLINOIS

CITY           SKY/WX    TMP DP  RH WIND       PRES   REMARKS
CHAMPAIGN      SUNNY     64  57  78 NW9       30.11S
DANVILLE*      SUNNY     62  57  82 W5        30.07S
RANTOUL*       SUNNY     66  56  69 NW8       30.11S
MATTOON        SUNNY     65  56  72 NW13      30.10S
PARIS*         SUNNY     63  57  81 NW6       30.10F
$$

ILZ079-100>102-291500-
SOUTHWEST ILLINOIS

CITY           SKY/WX    TMP DP  RH WIND       PRES   REMARKS
ALTON          SUNNY     66  61  82 W6        30.15S
BELLEVILLE     SUNNY     70  57  64 W2        30.13S
SPARTA*        SUNNY     64  55  72 CALM      30.16R
$$

ILZ064>066-069>071-074>076-080>082-084>086-088>090-092>094-291500-
SOUTH-CENTRAL ILLINOIS

CITY           SKY/WX    TMP DP  RH WIND       PRES   REMARKS
CARBONDALE     SUNNY     66  56  70 NW6       30.14S
CAIRO*         SUNNY     69  58  68 CALM      30.15R
EFFINGHAM*     SUNNY     66  52  61 NW10      30.12F
MARION         SUNNY     66  55  68 NW6       30.15S
MT. VERNON     SUNNY     66  55  68 N5        30.14S
CENTRALIA*     SUNNY     69  55  60 W6        30.13S
SALEM*         SUNNY    N/A N/A N/A W7        30.13F
METROPOLIS*    SUNNY     68  51  53 N3        30.13S
$$

ILZ067-068-072-073-078-083-087-091-291500-
SOUTHEAST ILLINOIS

CITY           SKY/WX    TMP DP  RH WIND       PRES   REMARKS
LAWRENCEVILLE  SUNNY     67  56  67 NW12      30.11S
FLORA*         SUNNY     65  55  69 NW8       30.12F
FAIRFIELD*     SUNNY     66  59  77 NW3       30.12F
HARRISBURG*    SUNNY     67  55  65 W7        30.14S
ROBINSON*      SUNNY     65  58  78 NW7       30.12R
CARMI*         SUNNY     68  57  68 NW7       30.12S
$$

ABBREVIATIONS USED IN REMARKS
   TC - TEMPERATURE IN CELSIUS
  WCI - WIND CHILL INDEX
   HX - HEAT INDEX
  VSB - VISIBILITY
$$




USA.gov is the U.S. government's official web portal to all federal, state and local government web resources and services.